Location: De Engel
(52.2443°N, 4.5356°E)
Time: 02:08:39
(UTC+00:00)

Daily predictions for brighter satellites

Satellite Brightness Start Highest point End
(mag) Time Altitude Azimuth Time Altitude Azimuth Time Altitude Azimuth
Cosmos 2344 4.3 02:45:54 71° E 02:45:54 71° E 02:57:03 10° SE
ATLAS 2AS CENTAUR R/B 3.8 02:52:21 46° ENE 02:52:21 46° ENE 02:57:44 10° NE
Cosmos 2082 Rocket 4.2 03:20:00 21° NNE 03:20:06 21° NNE 03:24:23 10° E
Lacrosse 5 3.8 03:33:29 25° ENE 03:33:29 25° ENE 03:35:36 10° ENE
ATLAS 3B R/B 4.4 03:36:30 22° SSE 03:36:30 22° SSE 03:38:47 10° SSE
CZ-4C R/B 3.1 03:47:08 46° NE 03:47:08 46° NE 03:51:36 10° NE
COSMO-SKYMED 1 4.2 03:57:07 10° SE 04:00:08 32° E 04:00:08 32° E
Cosmos 1844 Rocket 3.1 04:02:41 61° ENE 04:02:41 61° ENE 04:07:30 10° NE
COSMOS 2406 3.8 04:02:25 52° NNE 04:02:53 53° NE 04:08:31 10° SE
Cosmos 1937 Rocket 4.2 04:07:09 49° NE 04:07:09 49° NE 04:11:06 10° NNE
ATLAS 5 CENTAUR R/B 3.4 04:17:17 23° SE 04:18:23 26° ESE 04:22:07 10° ENE
Nadezhda 3 Rocket 4.2 04:14:19 10° N 04:20:38 69° ENE 04:26:49 10° SSE
NOSS 3-4 (A) 3.9 04:22:14 49° NNW 04:22:14 49° NNW 04:28:05 10° NE
NOSS 3-4 (C) 3.8 04:22:20 49° NNW 04:22:20 49° NNW 04:28:11 10° NE
USA 306 4.3 04:25:27 34° SE 04:25:27 34° SE 04:28:00 10° SE
Meteor 2-17 Rocket 4.5 04:26:08 62° NNW 04:26:08 62° NNW 04:31:18 10° N
NOSS 3-1 (C) 4.4 04:22:37 37° NNW 04:25:14 53° NNE 04:33:16 10° ESE
Cosmos 2297 Rocket 4.4 04:29:28 12° N 04:29:28 12° N 04:31:07 10° NNE
Cosmos 1048 Rocket 4.2 04:28:12 59° NNE 04:28:57 69° ENE 04:34:07 10° SE
Cosmos 2263 Rocket 3.7 04:33:14 23° N 04:33:14 23° N 04:36:03 10° NNE
ADEOS 3.7 04:27:05 10° NNE 04:32:20 72° ESE 04:37:33 10° S
FENGYUN 3A 3.6 04:27:22 10° NNE 04:32:50 85° ESE 04:36:29 21° SSW
Meteor 1-27 Rocket 4.1 04:29:03 18° N 04:33:25 68° ENE 04:39:18 10° SSE
Cosmos 468 4.5 04:35:54 63° N 04:36:43 80° ENE 04:41:57 10° SSE
Cosmos 1844 3.5 04:37:52 73° WSW 04:38:21 81° WNW 04:44:00 10° NNE
ATLAS 2AS CENTAUR R/B 3.1 04:39:48 48° WNW 04:41:21 55° NNW 04:48:54 10° NE
Meteor 1-10 Rocket 4.0 04:41:21 67° WNW 04:41:53 72° W 04:47:30 10° S
METEOR-M 4.0 04:42:18 10° NNE 04:47:41 89° E 04:53:03 10° SSW
SKYMED 2 3.5 04:44:41 10° SSE 04:48:46 78° S 04:48:46 78° S
Cosmos 1707 Rocket 4.0 04:47:28 31° N 04:49:21 60° ENE 04:53:37 10° SSE
SJ-12 4.3 04:45:25 10° NNE 04:49:27 61° ESE 04:53:28 10° S
Cosmos 372 Rocket 3.9 04:49:28 25° SSW 04:52:31 84° ESE 04:57:39 10° NNE
COSMOS 2455 2.8 04:49:17 28° SSW 04:52:41 85° SE 04:58:46 10° NE
Cosmos 2154 Rocket 3.9 04:50:11 10° S 04:56:27 90° W 05:02:49 10° N
ALOS 2.7 04:53:27 10° N 04:56:56 45° NNW 04:56:56 45° NNW
PSLV R/B 3.8 04:55:07 10° SSE 04:59:14 88° ENE 04:59:49 65° NNW
Cosmos 1833 Rocket 2.5 04:57:52 41° NW 04:59:58 83° WSW 05:05:35 10° SSE
Sich 1 3.4 04:57:25 10° S 05:01:49 68° E 05:06:14 10° NNE
Cosmos 1295 Rocket 4.4 04:57:03 10° S 05:03:08 85° E 05:09:17 10° NNE
Cosmos 2082 Rocket 2.4 05:01:52 25° NNW 05:05:16 69° NE 05:10:58 10° SE
Cosmos 2327 Rocket 4.3 04:59:15 10° SSW 05:05:19 77° WNW 05:11:29 10° N
SL-4 R/B 2.9 05:06:43 33° SSW 05:06:43 33° SSW 05:09:39 10° SE
FALCON 9 DEB 3.5 05:07:03 55° ENE 05:07:03 55° ENE 05:09:42 10° E
USA 290 2.9 05:07:39 49° NE 05:07:54 51° ENE 05:11:04 10° SE
Cosmos 2074 Rocket 4.0 05:01:58 10° SSW 05:08:01 53° WNW 05:14:07 10° N
Lacrosse 5 2.2 05:12:41 41° NW 05:13:51 50° N 05:18:48 10° ENE
EO 1 Delta rocket 3.7 05:14:19 10° S 05:18:56 69° W 05:23:42 10° NNW
ERBS 2.6 05:21:36 49° N 05:21:51 50° NNE 05:25:05 10° E
USA 307 3.9 05:22:34 30° SW 05:22:56 31° SW 05:26:44 10° SSE
Cosmos 2341 Rocket 4.1 05:16:56 10° S 05:23:07 81° E 05:29:25 10° NNE
Meteor PRIRODA 3.5 05:21:16 10° NNE 05:25:02 82° WNW 05:28:46 10° SSW
Meteor 2-12 Rocket 4.4 05:19:41 10° S 05:25:52 90° W 05:32:05 10° N
CZ-4B R/B 2.9 05:22:41 10° NNE 05:27:09 75° WNW 05:31:26 10° SSW
USA 308 4.0 05:28:59 27° SW 05:29:33 28° SW 05:33:15 10° SSE
Cosmos 2184 Rocket 4.4 05:27:56 10° SW 05:33:50 39° WNW 05:39:48 10° N
CZ-4C R/B 3.0 05:32:20 29° WNW 05:34:29 39° NNW 05:40:44 10° NE
Cosmos 2278 Rocket 2.3 05:30:19 10° SSW 05:35:58 78° ESE 05:41:40 10° NNE
FALCON 9 DEB 2.8 05:35:47 56° WNW 05:36:22 85° NNE 05:39:35 10° E
Okean O Rocket 3.7 05:32:38 10° NNE 05:36:36 30° E 05:40:33 10° SSE
Cosmos 1862 Rocket 3.5 05:32:15 10° N 05:36:44 90° SW 05:41:08 10° S
COSMO-SKYMED 1 3.3 05:33:25 10° SSW 05:37:17 31° W 05:37:21 31° W
Envisat 3.5 05:32:32 10° NNE 05:37:36 62° ESE 05:42:37 10° S
deb Chang Zheng 4 3.9 05:36:00 10° N 05:40:06 41° WNW 05:44:11 10° SW
Cosmos 2227 Rocket 4.3 05:39:57 10° NNW 05:41:44 11° N 05:43:32 10° NNE
Cosmos 1805 Rocket 3.9 05:37:40 10° SW 05:41:54 41° WNW 05:46:10 10° N
Cosmos 494 Rocket 4.2 05:39:48 24° NW 05:42:39 48° WSW 05:47:32 10° S
YAOGAN 6 2.9 05:39:28 10° NNE 05:42:57 63° E 05:46:25 10° S
Cosmos 1515 4.0 05:40:01 10° N 05:43:49 67° ENE 05:47:36 10° SSE
SMAP 4.3 05:41:38 10° NNE 05:46:06 44° E 05:50:32 10° S
Cosmos 1844 Rocket 3.5 05:44:24 25° WNW 05:46:14 30° NW 05:51:14 10° NNE
COSMOS 2406 3.9 05:44:31 24° WNW 05:47:01 35° WSW 05:52:10 10° S
Cosmos 1937 Rocket 4.4 05:47:22 24° WNW 05:48:21 26° NW 05:52:44 10° N
Cosmos 1666 Rocket 3.4 05:45:43 10° SSW 05:50:01 65° WNW 05:54:24 10° N
Cosmos 1242 Rocket 2.8 05:55:27 19° NNW 05:57:51 47° W 06:01:23 10° S
Meteor 2-4 Rocket 4.2 05:52:53 10° N 05:58:43 63° ENE 06:04:19 10° SSE
H-2A R/B 2.5 05:54:52 10° NNE 05:58:43 73° ESE 06:02:33 10° S
RESURS DK-1 4.3 05:59:02 14° NNW 05:59:02 14° NNW 06:01:11 10° N
Cosmos 1271 Rocket 3.5 05:55:16 10° N 05:59:03 53° ENE 06:02:51 10° SSE
ATLAS 5 CENTAUR R/B 1.6 05:58:53 13° WSW 06:02:36 58° NW 06:07:23 10° NE
MOS 1 Rocket 3.9 06:01:02 10° SSW 06:05:51 42° W 06:10:55 10° NNW
Cosmos 2251 Rocket 4.3 06:01:56 10° NNW 06:07:04 51° ENE 06:12:10 10° SE
CZ-2C R/B 2.6 06:01:56 10° SSE 06:07:20 89° WSW 06:12:39 10° NNW
USA 229 DEB 3.9 06:01:24 15° NW 06:07:40 81° SW 06:15:21 10° SE
USA 229 3.9 06:01:30 15° NW 06:07:47 82° SW 06:15:26 10° SE
Cosmos 2366 rocket 4.0 06:02:55 10° SSW 06:09:13 79° WNW 06:15:29 10° N
Okean 1-7 3.3 06:05:02 10° N 06:09:20 68° ENE 06:13:34 10° SSE
Cosmos 1633 Rocket 3.2 06:05:44 10° SSW 06:10:02 51° WNW 06:14:21 10° N
USA 81 4.2 06:06:56 10° SSW 06:12:02 50° WNW 06:17:10 10° N
FALCON 9 DEB 3.0 06:10:17 21° W 06:12:15 74° SSW 06:15:28 10° ESE
H-2A R/B 3.2 06:09:09 10° N 06:12:48 40° WNW 06:16:25 10° SW
Cosmos 2218 Rocket 3.9 06:08:45 10° SSW 06:14:57 70° WNW 06:21:08 10° N
Cosmos 2297 Rocket 4.3 06:12:51 10° NNW 06:15:29 13° NNE 06:18:05 10° NE
Cosmos 1125 Rocket 3.6 06:10:30 10° SW 06:15:36 54° WNW 06:20:44 10° NNE
NOSS 3-1 (C) 4.2 06:10:01 14° NW 06:16:32 65° SW 06:24:59 10° SSE
Cosmos 2263 Rocket 4.1 06:14:56 11° NW 06:17:11 13° NNW 06:19:42 10° NNE
Meteor 1-20 Rocket 4.3 06:11:34 10° SSW 06:17:17 65° WNW 06:23:07 10° N
FALCON 9 DEB 3.0 06:15:49 19° W 06:18:00 72° SSW 06:21:12 10° ESE
Cosmos 1269 Rocket 4.3 06:13:41 10° NW 06:18:43 48° WSW 06:23:45 10° S
Iridium 2 3.7 06:17:05 10° N 06:20:51 80° E 06:24:36 10° S
PSLV R/B 4.0 06:17:14 10° N 06:20:53 43° WNW 06:24:26 10° SW
NOSS 3-1 (A) 4.1 06:15:02 12° NW 06:21:54 81° SW 06:30:27 10° SE
NOSS 2-1 (E) 3.7 06:26:39 10° SSW 06:29:56 57° SE 06:33:33 10° NE
AQUARIUS 4.1 06:27:11 10° NNE 06:31:43 83° WNW 06:36:12 10° SSW
ATLAS 2AS CENTAUR R/B 3.7 06:27:15 12° WNW 06:33:56 36° N 06:40:44 10° ENE
CZ-4B DEB 4.3 06:28:37 10° N 06:33:59 58° WNW 06:39:20 10° SW
Cosmos 2242 Rocket 3.7 06:29:48 10° NNW 06:34:08 55° W 06:38:25 10° S
ALOS 4.1 06:33:01 10° NNW 06:34:34 12° NW 06:35:26 11° WNW
SL-27 R/B 4.3 06:32:46 10° N 06:35:36 25° NE 06:38:25 10° ESE
COSMOS 2455 3.6 06:33:56 10° W 06:39:19 32° NNW 06:44:43 10° NNE
Sich 1 4.5 06:36:56 10° WSW 06:39:59 18° WNW 06:43:03 10° NNW
Cosmos 1939 Rocket 3.5 06:36:02 10° NNE 06:40:07 62° E 06:44:13 10° S
Cosmos 2123 Rocket 4.4 06:35:15 10° N 06:41:27 70° ENE 06:47:38 10° SSE
Okean 1 4.3 06:38:02 10° NNW 06:41:33 28° W 06:45:01 10° SSW
USA 290 4.2 06:40:26 11° WNW 06:41:54 13° W 06:43:34 10° SW
FALCON 9 DEB 3.4 06:39:24 10° W 06:42:30 55° SSW 06:45:40 10° SE
Cosmos 1833 Rocket 4.2 06:39:39 10° WNW 06:43:03 16° W 06:46:25 10° SW
MOS 1-B 4.4 06:38:47 10° N 06:44:29 57° WNW 06:50:09 10° SW
Cosmos 1703 Rocket 3.8 06:42:05 10° NNW 06:46:18 50° W 06:50:29 10° S
NOAA 11 4.3 06:41:48 10° NNE 06:47:20 90° ENE 06:52:51 10° SSW
Cosmos 614 Rocket 4.5 06:43:05 10° NNW 06:48:10 61° ENE 06:53:16 10° SE
Cosmos 2082 Rocket 3.3 06:44:17 10° NW 06:48:53 26° WSW 06:53:30 10° SSW
SL-8 Rocket 4.5 06:45:04 10° SW 06:50:41 36° WNW 06:56:24 10° N
CZ-4 R/B 3.1 06:47:54 10° NNE 06:51:54 39° E 06:55:53 10° SSE
CZ-2C R/B 4.2 06:48:36 10° SSE 06:53:20 69° ENE 06:58:04 10° N
CZ-4B R/B 3.2 06:48:19 10° NNE 06:53:39 65° WNW 06:59:04 10° SSW
Cosmos 2297 3.8 06:51:19 10° SSW 06:56:57 89° ESE 07:02:39 10° NNE
Lacrosse 5 2.1 06:52:23 10° WNW 06:57:25 61° NNE 07:02:26 10° E
Cosmos 1470 Rocket 4.3 06:53:31 10° SW 06:57:25 31° WNW 07:01:21 10° N
H-2A R/B 4.0 06:53:36 10° NNE 06:58:01 32° E 07:02:23 10° SSE
ERBS 3.1 06:54:54 10° WNW 06:58:02 40° SW 07:01:10 10° SSE
Geosat 4.1 06:54:16 10° SSE 06:59:16 72° WSW 07:04:20 10° NW
Meteor 1-14 Rocket 4.4 06:55:49 10° SSW 07:01:26 56° WNW 07:07:14 10° N
Cosmos 1818 3.6 06:57:17 10° SW 07:02:42 66° NW 07:08:10 10° NE
